Hourly Data Report for July 03, 2021

IQALUIT CLIMATE
NUNAVUT
Current Station Operator: ECCC - MSC

63°44'50.000" N
68°32'40.000" W
33.50 m
2402592
71321
XFB

Download Data

Hourly Data (July 2021)
Hourly Data Report for July 3, 2021
TIME
LST
Temp Definition
°C
Dew Point Definition
°C
Rel Hum Definition
%
Precip. Amount Definition
mm

Wind Dir Definition
10's deg

Wind Spd Definition
km/h
Visibility Definition
km
Stn Press Definition
kPa
Hmdx Definition


Wind Chill Definition


Weather Definition


00:00 5.3 4.1 92 0.0 30 9   101.26     LegendNANA
01:00 5.1 3.8 91 0.0 31 8   101.26     LegendNANA
02:00 5.0 3.7 92 0.0 33 7   101.25     LegendNANA
03:00 5.2 3.8 91 0.0 33 8   101.27     LegendNANA
04:00 5.4 4.0 91 0.0 33 10   101.29     LegendNANA
05:00 5.4 4.5 93 0.0 32 8   101.30     LegendNANA
06:00 6.0 4.4 90 0.1 28 4   101.30     LegendNANA
07:00 6.1 4.2 87 0.0 25 4   101.32     LegendNANA
08:00 5.1 3.9 92 0.0 15 4   101.31     LegendNANA
09:00 6.1 4.5 90 0.0 21 3   101.30     LegendNANA
10:00 7.0 5.0 87 0.0 21 7   101.27     LegendNANA
11:00 6.9 4.4 84 0.0 12 9   101.23     LegendNANA
12:00 6.3 4.1 86 0.0 13 9   101.22     LegendNANA
13:00 6.3 4.3 87 0.0 13 5   101.21     LegendNANA
14:00 6.2 4.6 90 0.1 14 4   101.20     LegendNANA
15:00 5.4 4.3 92 0.4 13 7   101.17     LegendNANA
16:00 6.0 4.7 92 0.4 13 7   101.15     LegendNANA
17:00 6.1 4.8 92 0.1 14 8   101.11     LegendNANA
18:00 5.7 4.6 93 0.3 14 6   101.08     LegendNANA
19:00 5.7 4.8 94 0.7 14 6   101.06     LegendNANA
20:00 5.6 4.8 94 0.5 13 5   101.03     LegendNANA
21:00 5.6 4.6 93 0.6 14 12   101.01     LegendNANA
22:00 5.6 4.6 93 0.8 14 13   100.99     LegendNANA
23:00 5.4 4.5 94 1.0 15 11   100.93     LegendNANA

Notes on Data Quality.

Legend

  • E = Estimated
  • M = Missing
  • NA = Not Available*
  • [empty] = Indicates an unobserved value
Date modified: